Snowfall_Accumulation
0.0 0.0 0.0 0.0 0.0 0.0 0.0 0.0 0.0 0.0 0.0 0.0 0.0 0.0 0.0 0.0 0.0 0.0 0.0 0.0 0.0 0.0
0.3 0.4 0.4 0.0 0.0 0.0 0.0 0.0 0.0 0.0 0.0 0.0 0.0 0.0 0.0 0.0 0.0 0.0 0.0 0.0 0.0 0.0
0.6 0.7 0.6 0.6 0.0 0.0 0.2 0.0 0.0 0.0 0.0 0.0 0.0 0.0 0.0 0.0 0.0 0.0 0.0 0.0 0.0 0.0
0.3 0.1 0.6 0.5 0.2 0.1 0.0 0.0 0.3 0.0 0.0 0.0 0.0 0.0 0.0 0.0 0.0 0.0 0.0 0.0 0.0 0.0
0.9 0.6 0.1 0.5 0.4 0.2 0.0 0.0 0.0 0.6 0.0 0.0 0.0 0.0 0.0 0.0 0.0 0.0 0.0 0.0 0.0 0.0
0.7 0.9 0.4 0.0 0.0 0.4 0.4 0.0 0.6 1.0 1.2 0.0 0.0 0.0 0.0 0.0 0.0 0.0 0.0 0.0 0.0 0.0
0.4 0.5 0.5 0.3 0.2 1.0 0.4 0.5 0.6 0.4 0.8 0.5 0.1 0.0 0.2 0.0 0.0 0.0 0.0 0.0 0.0 0.0
0.5 1.2 1.2 1.3 1.3 1.0 1.8 1.3 0.7 1.1 0.5 0.4 0.0 0.0 0.5 0.3 1.1 1.1 0.7 0.3 0.7 0.7
1.9 1.0 2.0 2.4 2.4 1.7 1.4 1.9 0.6 1.1 0.7 0.4 0.0 0.0 0.3 0.4 2.6 3.5 3.0 2.0 2.2 1.6
2.7 2.0 1.9 2.1 1.8 1.6 1.3 1.0 0.5 1.4 1.0 0.6 0.2 0.1 0.4 0.5 2.2 5.6 5.4 4.1 3.4 1.9
2.3 1.5 1.3 1.5 1.4 1.1 0.9 2.0 2.1 1.8 1.1 2.8 2.3 1.2 0.9 2.0 5.1 5.9 4.1 2.5 1.8 1.1
1.5 1.3 1.4 1.7 1.5 2.7 3.6 5.4 5.0 5.4 6.8 5.6 3.8 0.2 1.1 2.7 6.0 5.7 2.6 0.5 0.2 0.2
2.2 3.5 6.1 3.5 2.9 5.8 5.5 5.5 4.7 5.6 3.9 1.9 3.0 0.5 1.0 1.7 6.0 8.0 3.1 1.0 0.4 0.1
2.9 4.1 4.9 6.0 5.3 6.3 7.8 6.9 5.4 4.1 1.7 1.7 2.6 2.5 1.3 1.4 5.4 8.3 9.0 3.7 0.8 0.4